Temperature
24 21 20 21 22 23 24 24 24 25 26 26 25 25 25 25 25 24 23 23 23 23 23 23 22 21 21 21 20 20 19 19 19 18 18 18 18 18 18 18 18 18 18 18
22 21 22 23 24 24 24 24 24 25 26 26 25 24 24 24 24 24 23 23 23 22 22 22 22 21 21 21 20 20 19 19 19 19 18 18 18 18 18 18 18 18 18 18
21 22 24 25 25 25 25 24 24 25 26 26 25 23 23 23 23 23 23 23 23 22 22 22 21 21 21 21 20 20 19 19 19 19 18 18 18 18 17 17 18 18 18 18
22 24 25 25 25 25 24 26 26 26 24 22 24 22 22 22 22 22 22 22 22 22 22 22 21 21 21 21 20 20 19 19 19 18 18 18 18 18 18 18 18 17 17 17
22 24 25 25 26 26 25 26 26 26 24 22 22 21 21 20 21 21 21 22 22 21 21 21 21 22 21 21 20 20 19 19 19 18 18 18 18 18 18 18 18 17 17 17
24 25 26 26 27 27 27 26 24 22 20 20 21 21 21 20 20 21 21 22 22 21 21 21 21 21 21 20 20 19 19 19 18 18 18 18 18 18 18 18 17 17 17 17
23 25 26 27 26 26 26 23 21 21 19 20 20 21 20 21 21 21 21 21 21 21 21 21 20 20 20 20 19 19 19 18 18 18 18 18 18 18 18 18 18 17 17 17
22 22 25 26 25 25 24 22 21 21 20 19 20 20 20 21 21 21 21 22 21 20 20 21 20 20 20 20 19 19 18 18 18 18 17 17 17 17 18 18 17 17 18 18
22 22 25 27 27 26 24 22 21 19 20 19 19 20 20 20 21 21 21 20 20 20 20 20 20 20 20 19 19 19 18 18 18 17 17 17 17 17 17 17 17 17 17 17
22 23 25 26 27 26 25 23 19 19 19 20 20 20 19 19 20 20 19 19 19 20 20 20 20 20 19 19 19 18 18 18 18 17 17 17 17 17 17 17 17 17 17 17
22 22 23 25 25 24 24 23 20 18 19 19 19 19 20 19 19 19 18 19 19 19 19 19 20 20 19 19 19 18 18 18 17 17 17 17 17 17 17 17 17 17 17 17
21 20 21 23 24 25 24 23 20 20 20 19 18 19 20 19 19 19 19 19 19 19 19 19 19 19 19 18 18 18 18 17 17 17 17 17 17 17 17 17 17 17 17 17
22 20 20 21 22 23 24 23 21 19 18 18 19 19 20 18 18 19 19 19 19 19 19 19 19 19 19 18 18 18 17 17 17 17 17 17 17 17 17 17 17 17 17 17
22 19 20 21 21 22 23 23 22 20 19 19 20 19 19 18 18 18 19 19 19 19 19 19 19 19 19 18 18 18 18 17 17 17 17 17 17 17 17 17 17 17 17 17
20 19 20 21 22 23 23 23 23 22 20 20 20 19 19 18 18 18 19 19 19 19 19 19 19 19 18 18 18 18 18 17 17 17 17 17 17 17 17 17 17 17 17 16
18 19 19 21 22 23 23 23 23 23 22 21 20 19 18 18 18 18 18 19 18 19 19 19 19 19 18 18 18 18 18 18 17 17 17 17 17 17 17 17 17 17 17 16
17 17 18 19 21 21 20 21 21 21 21 20 19 18 17 17 17 17 17 18 18 18 18 19 19 19 19 18 18 18 18 18 18 18 17 17 17 17 17 17 17 17 17 16
17 16 15 17 19 19 19 20 21 20 19 19 18 17 17 16 16 17 17 17 17 18 18 18 18 18 18 18 18 18 18 18 18 18 18 17 17 17 17 17 17 17 17 16
16 16 15 15 17 18 19 19 19 19 17 18 17 17 16 16 16 16 17 17 17 17 17 18 18 18 18 18 18 18 18 18 17 17 17 17 17 17 17 17 17 16 16 16
16 15 16 16 17 18 18 19 19 19 17 17 16 16 16 16 15 15 16 17 17 17 17 17 18 18 18 17 18 18 17 17 17 17 17 17 17 17 17 17 17 16 16 16
15 15 16 16 16 16 16 17 19 18 16 16 16 16 16 15 14 15 15 16 16 16 16 16 17 17 17 17 17 17 17 17 17 17 17 17 17 17 17 17 16 16 16 16
15 15 15 15 15 16 15 16 16 15 15 15 15 15 15 14 14 14 14 15 15 15 16 16 16 16 16 16 17 17 16 16 16 16 16 16 16 16 16 16 16 16 15 15
14 14 13 14 14 14 14 14 15 15 15 15 15 15 14 14 13 13 13 14 14 14 15 15 15 15 15 15 16 16 15 15 16 16 16 16 16 16 15 15 15 15 15 15
14 14 13 13 13 13 14 14 15 15 15 15 15 14 14 13 13 13 13 13 13 13 14 14 14 14 14 14 14 15 15 15 15 15 15 15 15 15 15 15 14 14 14 14
13 14 13 13 13 13 13 14 14 14 14 14 14 14 13 13 12 12 12 12 12 13 13 13 13 13 13 13 13 14 14 14 14 14 14 14 14 14 14 14 13 13 13 13
12 13 13 13 13 12 13 13 14 14 13 13 13 13 12 12 12 12 11 12 12 12 12 12 12 12 12 13 13 13 13 14 14 13 13 13 13 13 13 13 13 12 12 12
Wind_Speed
5 4 7 10 9 8 7 8 11 13 10 4 5 5 5 7 9 10 8 9 11 13 12 12 14 15 15 15 15 15 15 15 14 11 10 10 9 8 8 8 13 14 13 14
2 9 12 9 8 9 10 11 13 12 10 3 3 3 2 4 6 8 9 10 11 9 8 11 12 14 15 16 16 15 15 16 15 12 10 8 8 7 8 7 9 13 13 13
12 8 9 11 11 11 12 11 12 9 7 4 3 3 2 1 2 5 8 9 11 14 14 13 12 13 15 16 17 16 16 15 14 12 8 8 6 5 5 7 7 8 12 12
9 12 11 10 13 12 12 12 10 7 1 3 2 2 6 3 1 3 5 7 10 12 13 12 12 12 14 14 14 14 15 15 13 14 13 14 11 9 8 8 7 8 10 11
9 8 12 14 16 14 12 10 6 3 2 1 3 2 6 3 1 3 3 4 7 9 11 12 13 13 12 12 12 12 13 13 13 14 14 14 10 7 6 7 9 9 7 9
11 9 9 12 14 12 10 3 3 5 5 1 3 3 5 4 5 4 3 3 5 8 9 8 8 8 9 10 11 11 13 13 13 14 14 13 13 12 11 10 11 9 6 7
9 11 9 8 8 7 4 4 3 4 4 4 3 2 6 6 4 4 5 5 6 7 8 8 8 8 9 9 10 10 13 12 13 13 13 13 13 14 15 12 11 10 7 6
7 8 7 7 9 8 5 9 8 6 5 4 2 2 5 6 4 1 3 5 6 6 8 9 9 8 9 9 9 10 12 11 12 13 13 12 12 10 9 11 10 10 8 8
7 7 7 6 6 9 5 5 9 8 3 1 3 4 5 3 4 3 2 3 3 4 6 7 8 8 7 8 9 10 11 11 12 12 11 11 12 11 11 11 10 8 7 8
8 5 6 6 2 4 9 8 7 7 5 2 3 3 4 5 2 1 3 3 1 2 4 6 7 8 7 7 6 8 9 10 10 10 11 12 11 11 11 10 10 10 9 9
8 6 6 3 3 6 3 4 6 6 6 6 3 5 5 6 3 3 3 2 1 2 4 6 6 6 6 6 7 7 8 8 9 10 10 10 10 10 10 10 11 10 9 9
6 6 4 5 4 4 6 6 8 6 4 5 5 6 4 5 4 4 4 3 2 3 4 5 5 6 6 6 6 7 7 7 8 8 9 10 10 10 10 10 10 10 10 9
5 6 2 5 6 4 3 2 5 7 6 5 5 5 1 2 2 3 4 5 5 5 5 4 5 6 6 7 6 7 7 7 7 8 9 9 9 10 10 10 9 9 9 9
6 5 7 8 6 2 1 1 4 6 5 5 6 6 3 4 4 4 4 6 7 6 6 6 5 5 6 6 7 7 7 7 8 8 9 9 9 10 9 9 9 9 9 10
6 4 3 3 3 3 1 1 3 4 7 7 7 8 8 8 7 5 4 6 8 7 6 7 6 5 5 5 6 6 7 7 8 8 8 9 9 9 9 9 9 9 9 10
5 4 3 2 2 3 3 2 1 2 4 6 7 3 2 4 4 4 4 5 7 7 7 7 7 6 6 6 6 6 6 7 7 8 8 8 9 9 9 9 9 9 9 8
3 4 4 1 2 4 3 3 2 3 2 6 5 4 6 6 6 4 4 4 5 5 5 5 5 5 5 6 6 7 8 7 7 8 8 8 9 9 9 10 9 9 9 8
5 4 3 2 4 2 4 1 7 10 7 5 6 6 9 9 7 5 4 5 5 4 4 3 2 2 3 3 4 5 6 7 7 7 7 8 9 9 9 9 9 8 7 7
5 7 4 3 2 1 2 2 3 7 4 4 7 8 9 9 8 7 5 5 4 4 3 2 2 2 2 2 4 6 6 6 7 7 7 8 9 9 9 9 8 7 6 6
4 6 6 4 4 4 3 4 1 8 3 1 6 7 7 4 4 1 3 5 6 6 5 4 3 3 3 2 4 6 6 5 5 5 6 6 7 8 8 8 8 6 6 6
4 4 4 4 3 3 3 6 2 5 5 3 5 5 5 3 4 4 5 7 7 7 7 7 7 7 5 3 6 7 6 4 3 3 4 5 5 5 6 6 6 6 6 6
2 3 2 4 4 5 4 3 2 4 2 5 6 7 10 9 9 9 8 9 9 9 9 9 9 9 8 8 8 9 6 4 5 6 6 6 5 5 6 7 6 6 6 6
1 3 3 3 3 1 1 3 3 4 5 5 6 8 11 11 10 10 9 9 10 9 9 9 10 11 10 10 9 10 6 6 8 9 9 8 8 7 7 7 7 6 5 5
2 2 3 3 2 3 4 5 6 7 6 7 8 10 12 13 12 11 9 9 10 9 9 9 11 12 11 10 10 9 7 8 10 10 9 8 9 9 8 7 6 6 5 5
2 1 3 3 4 5 5 5 7 10 11 13 12 12 13 15 14 12 11 10 10 9 9 9 10 11 10 10 10 9 8 9 11 10 9 8 7 7 8 8 7 6 5 4
2 2 4 4 6 5 4 3 7 11 12 12 13 13 11 13 14 14 12 10 10 9 9 10 11 10 9 9 9 9 8 8 9 9 8 6 6 5 6 8 8 13 10 11
Wind_Direction
210 166 216 223 210 213 242 269 277 277 278 276 222 206 204 192 176 175 173 165 171 182 184 175 171 168 164 164 170 175 173 173 169 168 165 166 170 169 168 169 167 168 168 165
235 236 226 220 230 238 247 258 268 281 282 255 211 205 210 174 171 170 178 177 166 165 170 176 175 172 169 172 175 176 176 175 175 175 171 169 164 169 170 170 166 169 169 168
209 234 218 223 239 243 250 243 250 253 286 1 80 8 331 220 126 156 163 172 169 171 177 179 179 180 176 178 181 181 180 178 176 168 155 151 145 141 157 171 173 176 173 173
234 241 241 230 236 234 254 248 239 239 246 305 95 217 273 258 250 200 177 166 172 177 177 180 183 181 184 185 182 182 181 179 175 168 167 167 171 173 180 177 175 176 176 173
235 220 218 230 237 230 236 249 239 231 180 40 18 134 281 346 270 252 222 182 183 176 179 183 184 183 185 184 183 183 180 179 177 175 176 175 175 173 162 164 168 176 179 176
245 251 221 223 236 230 231 242 353 40 71 31 264 169 267 251 235 240 214 184 179 173 179 183 179 173 178 179 179 178 178 181 179 177 177 179 174 169 166 171 176 178 178 179
269 266 251 234 239 262 219 126 28 353 11 247 263 172 247 268 266 220 187 175 172 167 173 174 176 174 172 172 176 180 180 183 182 179 181 181 177 175 177 177 179 177 177 181
224 266 251 224 205 213 216 150 165 194 214 255 334 220 255 284 299 235 158 157 157 164 176 177 178 174 171 173 177 179 181 184 184 184 185 184 180 180 181 179 179 182 184 184
201 242 258 234 209 181 189 179 169 143 151 108 294 281 301 327 352 19 65 111 138 168 172 171 168 170 168 171 183 183 182 181 182 187 187 185 182 181 182 177 177 179 180 181
185 240 278 255 222 206 173 161 109 124 154 204 284 273 250 266 274 67 79 81 94 144 159 166 171 173 170 168 171 169 175 179 181 184 188 188 185 184 179 173 177 179 181 181
180 199 288 328 193 203 168 140 123 128 152 157 207 268 242 226 195 135 132 149 161 162 168 174 166 158 155 155 159 165 174 174 177 178 177 179 180 176 172 175 179 179 180 179
181 160 236 263 264 187 158 163 147 149 187 154 156 250 268 205 185 152 159 172 148 163 166 156 157 152 154 162 165 169 172 174 176 173 171 173 171 169 172 177 179 177 179 180
159 136 160 325 339 8 83 128 140 133 127 145 159 239 277 189 168 163 166 163 150 150 146 136 147 163 170 173 171 172 176 175 170 167 166 165 167 170 174 175 176 177 177 179
128 117 160 190 211 202 114 76 120 117 136 169 188 189 211 202 194 186 178 155 148 146 146 150 162 168 168 169 173 174 179 176 172 169 168 169 173 176 176 174 175 178 178 179
97 112 133 180 176 134 138 169 144 140 162 167 191 181 205 197 189 180 159 143 141 149 158 164 171 170 167 169 171 173 176 175 175 172 172 176 176 176 174 175 177 178 181 186
67 109 80 24 43 77 56 6 109 115 126 131 130 172 188 132 106 113 135 142 146 157 162 171 176 171 171 176 181 176 177 178 173 174 179 179 174 176 178 179 179 179 183 183
64 96 85 324 338 57 8 336 98 95 91 136 148 171 128 110 101 105 116 119 132 150 156 164 171 174 186 188 185 184 183 173 170 178 181 178 176 181 185 184 180 183 185 184
128 98 108 109 60 159 233 347 97 93 61 69 99 115 116 116 108 83 81 103 110 124 134 149 151 175 198 186 180 177 171 167 172 179 184 182 181 185 182 176 180 185 184 184
144 133 115 111 127 231 303 2 93 112 61 67 107 110 115 119 90 58 52 76 86 99 109 120 133 155 167 172 175 162 160 164 171 183 190 188 184 183 180 181 181 179 174 175
68 106 119 123 134 201 241 311 347 105 89 82 120 129 137 127 107 115 50 62 69 66 69 69 77 89 106 125 140 138 141 147 169 189 191 182 176 174 174 176 173 165 161 165
49 58 116 136 157 233 281 303 331 134 188 168 129 132 116 102 135 124 80 69 70 68 64 65 69 68 62 77 104 106 104 115 139 137 131 131 139 147 150 145 140 137 140 137
136 127 143 137 161 224 304 6 108 164 132 117 110 108 106 106 104 94 84 77 71 67 63 66 73 66 53 60 85 90 83 82 87 92 95 97 105 115 118 115 118 123 132 132
81 160 156 158 180 178 69 105 102 121 115 113 118 119 119 112 107 99 87 81 75 71 68 67 74 68 55 51 68 78 66 76 86 87 85 84 84 82 86 100 107 105 110 120
342 69 105 95 96 94 79 83 84 97 108 107 116 121 118 116 114 106 98 90 81 70 68 71 74 71 60 52 56 60 62 73 86 90 87 86 87 83 76 79 86 95 98 106
281 35 91 106 121 96 74 82 101 102 99 99 101 105 112 114 112 108 101 92 87 79 70 70 73 72 64 57 53 49 55 71 77 81 86 83 83 89 84 74 62 74 71 101
299 178 157 184 179 143 132 108 112 109 107 110 110 104 103 109 112 108 101 94 88 83 77 74 70 67 60 59 54 43 47 66 78 78 77 84 89 91 96 96 78 56 65 69
Height
1463 1471 1476 1473 1472 1474 1475 1478 1479 1469 1457 1459 1461 1462 1459 1461 1464 1466 1468 1468 1470 1472 1476 1480 1484 1488 1491 1494 1498 1501 1504 1509 1513 1517 1520 1523 1527 1531 1535 1538 1542 1545 1548 1551
1467 1470 1463 1463 1465 1468 1471 1477 1475 1465 1455 1456 1461 1463 1460 1460 1462 1464 1466 1467 1468 1472 1476 1480 1482 1485 1487 1489 1493 1497 1501 1505 1508 1512 1517 1521 1525 1529 1532 1536 1540 1543 1546 1549
1467 1461 1456 1461 1464 1467 1468 1472 1470 1468 1457 1456 1462 1471 1466 1461 1461 1462 1463 1465 1466 1468 1472 1476 1479 1481 1483 1486 1490 1493 1496 1501 1505 1509 1514 1518 1523 1527 1530 1533 1536 1540 1544 1547
1460 1454 1455 1458 1460 1461 1469 1456 1457 1459 1467 1476 1470 1489 1474 1465 1463 1462 1461 1462 1464 1466 1468 1471 1474 1477 1480 1482 1486 1490 1493 1497 1501 1506 1510 1513 1516 1520 1524 1528 1533 1537 1541 1544
1455 1448 1451 1455 1452 1452 1456 1448 1451 1455 1465 1477 1477 1486 1481 1469 1469 1464 1461 1461 1462 1464 1466 1468 1470 1473 1476 1479 1482 1486 1490 1494 1498 1502 1505 1509 1513 1518 1522 1527 1530 1534 1538 1541
1447 1441 1442 1443 1440 1441 1443 1448 1455 1463 1475 1493 1484 1488 1486 1474 1468 1462 1458 1459 1461 1462 1464 1466 1469 1472 1474 1476 1479 1482 1485 1489 1494 1498 1502 1505 1510 1514 1519 1523 1526 1531 1535 1538
1450 1441 1436 1435 1441 1440 1444 1465 1486 1489 1499 1497 1481 1484 1484 1465 1459 1457 1456 1456 1459 1462 1464 1466 1468 1470 1471 1473 1476 1479 1482 1485 1490 1494 1498 1502 1506 1511 1515 1519 1523 1527 1531 1534
1459 1455 1435 1431 1436 1443 1445 1459 1486 1498 1501 1496 1484 1486 1475 1459 1456 1455 1455 1455 1458 1461 1463 1465 1466 1468 1470 1471 1474 1476 1479 1482 1486 1490 1494 1498 1502 1507 1511 1516 1520 1524 1528 1531
1453 1451 1428 1424 1424 1431 1444 1455 1458 1479 1487 1496 1492 1481 1468 1458 1456 1455 1455 1457 1459 1461 1462 1463 1466 1467 1469 1471 1472 1474 1476 1479 1482 1486 1491 1495 1498 1502 1507 1512 1517 1521 1525 1529
1438 1446 1431 1422 1422 1425 1432 1442 1462 1479 1495 1501 1493 1485 1480 1465 1460 1458 1457 1457 1459 1460 1462 1463 1465 1467 1468 1470 1471 1473 1474 1476 1480 1483 1486 1491 1494 1499 1504 1508 1513 1518 1522 1526
1430 1444 1437 1429 1432 1435 1437 1443 1455 1471 1477 1493 1500 1490 1462 1460 1458 1458 1459 1459 1460 1461 1463 1464 1465 1467 1469 1470 1471 1472 1474 1476 1478 1480 1484 1487 1491 1496 1501 1505 1510 1515 1519 1523
1426 1440 1447 1436 1425 1421 1428 1438 1451 1469 1476 1479 1489 1485 1455 1455 1455 1455 1457 1458 1459 1462 1463 1464 1466 1467 1469 1470 1472 1472 1474 1476 1477 1479 1482 1485 1489 1493 1498 1503 1507 1512 1516 1520
1423 1439 1453 1450 1443 1431 1432 1434 1440 1453 1466 1476 1484 1478 1454 1454 1455 1455 1456 1457 1459 1462 1462 1464 1466 1467 1468 1470 1472 1472 1473 1475 1477 1479 1481 1484 1488 1492 1496 1500 1505 1509 1513 1517
1415 1435 1447 1455 1450 1439 1438 1436 1437 1450 1466 1470 1468 1466 1459 1456 1455 1455 1455 1455 1457 1460 1461 1463 1465 1467 1467 1469 1471 1472 1474 1475 1477 1478 1481 1484 1487 1491 1495 1499 1503 1507 1511 1514
1418 1435 1435 1434 1430 1431 1434 1435 1436 1442 1450 1459 1458 1458 1455 1453 1453 1453 1454 1454 1456 1458 1461 1462 1464 1466 1467 1469 1470 1472 1473 1475 1477 1478 1480 1483 1487 1491 1494 1498 1501 1505 1509 1512
1423 1434 1435 1436 1430 1430 1435 1435 1434 1437 1440 1445 1449 1455 1450 1452 1453 1454 1455 1456 1456 1457 1459 1461 1464 1465 1466 1468 1470 1471 1473 1474 1476 1478 1480 1483 1486 1489 1493 1497 1500 1503 1506 1510
1429 1435 1444 1448 1437 1437 1448 1441 1438 1440 1441 1442 1451 1453 1450 1453 1454 1455 1456 1457 1457 1458 1459 1461 1462 1464 1465 1467 1469 1470 1472 1474 1476 1477 1480 1482 1485 1488 1491 1495 1498 1501 1504 1507
1430 1438 1448 1451 1448 1460 1451 1436 1434 1439 1443 1443 1446 1448 1450 1453 1456 1456 1457 1457 1459 1459 1460 1461 1462 1463 1465 1466 1468 1470 1472 1473 1475 1476 1479 1481 1484 1487 1490 1493 1496 1499 1502 1504
1424 1435 1448 1457 1459 1455 1444 1439 1438 1443 1452 1448 1449 1451 1453 1454 1456 1458 1459 1459 1459 1459 1460 1461 1462 1463 1465 1466 1467 1469 1470 1472 1474 1476 1477 1480 1482 1485 1488 1490 1493 1496 1499 1502
1426 1430 1444 1453 1458 1461 1449 1439 1437 1441 1456 1449 1449 1452 1453 1454 1460 1462 1460 1459 1460 1460 1461 1461 1463 1464 1465 1465 1466 1467 1469 1471 1473 1474 1476 1478 1481 1483 1485 1488 1490 1493 1496 1498
1437 1440 1445 1451 1457 1453 1444 1439 1437 1452 1456 1449 1450 1452 1452 1455 1459 1461 1461 1461 1461 1461 1462 1462 1463 1464 1464 1466 1466 1467 1468 1470 1472 1474 1475 1477 1479 1481 1483 1485 1488 1491 1493 1496
1440 1444 1447 1450 1457 1457 1442 1441 1445 1447 1445 1447 1450 1452 1453 1456 1459 1461 1462 1463 1463 1463 1463 1464 1464 1464 1465 1466 1467 1467 1469 1470 1472 1473 1475 1476 1478 1480 1482 1484 1486 1489 1491 1493
1439 1441 1444 1447 1450 1444 1442 1442 1443 1443 1445 1448 1450 1452 1454 1457 1460 1462 1464 1465 1465 1466 1466 1466 1466 1466 1468 1468 1468 1469 1471 1472 1473 1474 1475 1476 1478 1480 1481 1483 1485 1488 1490 1491
1438 1436 1440 1444 1445 1443 1444 1444 1444 1445 1446 1448 1451 1453 1455 1458 1461 1463 1466 1467 1468 1469 1468 1468 1468 1469 1470 1471 1471 1472 1473 1474 1474 1474 1476 1478 1479 1480 1482 1483 1485 1487 1489 1491
1440 1438 1441 1444 1445 1445 1446 1447 1447 1448 1449 1451 1454 1456 1457 1459 1463 1465 1467 1469 1470 1472 1472 1472 1472 1472 1474 1475 1475 1475 1476 1476 1476 1477 1478 1480 1481 1482 1483 1485 1487 1489 1490 1492
1439 1439 1441 1444 1443 1445 1448 1449 1449 1449 1451 1454 1456 1459 1462 1462 1465 1468 1470 1472 1474 1475 1476 1476 1476 1477 1478 1478 1479 1479 1479 1480 1479 1480 1481 1482 1484 1485 1486 1487 1489 1491 1493 1494